User: anonymous   Login
Location: Unspecified
(0.0000°N, 0.0000°E)
Time: 18:06:21
(UTC+00:00)
Language:

CBERS-1 - Orbit

View from above orbital plane
View from above orbital plane
View from above satellite
View from above satellite

Ground track
Ground track

The orbit data is extracted from the following two-line orbital elements,

1 25940U 99057A   19085.50170792  .00000022  00000-0  23029-4 0  9998
2 25940  98.5596  27.5416 0004057 232.6798 127.4018 14.35461257 18697
Epoch (UTC): 26 March 2019 12:02:27
Eccentricity: 0.0004057
inclination: 98.5596°
perigee height: 770 km
apogee height: 776 km
right ascension of ascending node: 27.5416°
argument of perigee: 232.6798°
revolutions per day: 14.35461257
mean anomaly at epoch: 127.4018°
orbit number at epoch: 1869

The dashed part of the orbit path shows where the satellite is in the earth's shadow,  

DLR